Regional Weather Roundup
Issued by NWS

Home | Current Version | Previous Version | Text Only | Print | Product List | Glossary Off
Versions: 1 2 3 4 5 6 7 8 9 10 11 12 13 14 15 16 17 18 19 20 21 22 23 24 25 26 27 28 29 30 31 32 33 34 35 36 37 38 39 40 41 42 43 44 45 46 47 48 49 50

000
ASUS43 KOAX 310202
RWRNE

WEATHER ROUNDUP FOR NEBRASKA
NATIONAL WEATHER SERVICE OMAHA NE
900 PM CDT WED JUL 30 2014

NOTES: SATELLITE DATA IS BEING USED TO AUGMENT CLOUD COVER ABOVE
       12000 FEET.
       "FAIR" INDICATES FEW OR NO CLOUDS BELOW 12,000 FEET WITH NO
       SIGNIFICANT WEATHER AND/OR OBSTRUCTIONS TO VISIBILITY.

  * THESE STATIONS DO NOT REPORT WEATHER SUCH AS RAIN...SNOW OR FOG.

NEZ001>004-019>022-054>056-310300-
NEBRASKA PANHANDLE

CITY           SKY/WX    TMP DP  RH WIND       PRES   REMARKS
SCOTTSBLUFF    MOCLDY    71  57  61 SW6       30.22F
ALLIANCE       MOCLDY    70  51  51 W8        30.20S
CHADRON        PTCLDY    75  49  39 W5        30.14S
KIMBALL        CLOUDY    63  58  83 W8        30.28R
SIDNEY         CLOUDY    65  57  75 SW9       30.27F
$$

NEZ057>060-069>072-079>082-310300-
SOUTHWEST NEBRASKA

CITY           SKY/WX    TMP DP  RH WIND       PRES   REMARKS
NORTH PLATTE   MOCLDY    68  57  68 E5        30.16S
IMPERIAL       CLOUDY    70  59  68 W10       30.20S
LEXINGTON      MOCLDY    72  61  69 S3        30.15F HAZE
MCCOOK         MOCLDY    74  58  57 S3        30.17S
OGALLALA       CLOUDY    67  58  72 W7        30.20S
$$

NEZ005>010-023>029-035>040-094-310300-
NORTH CENTRAL NEBRASKA

CITY           SKY/WX    TMP DP  RH WIND       PRES   REMARKS
VALENTINE      CLOUDY    79  51  37 S6        30.11S
AINSWORTH      MOCLDY    72  54  52 S6        30.12S
BROKEN BOW     PTCLDY    69  60  73 CALM      30.14F
O`NEILL        PTCLDY    73  59  62 E6        30.12S
ORD            MOCLDY    73  59  61 SE3       30.12S
THEDFORD       PTCLDY    74  53  47 S8        30.15F
$$

NEZ041-046>049-061>064-073>077-083>087-310300-
SOUTH CENTRAL NEBRASKA

CITY           SKY/WX    TMP DP  RH WIND       PRES   REMARKS
GRAND ISLAND   MOCLDY    70  59  68 SE5       30.14S
AURORA         PTCLDY    71  60  69 CALM      30.13S
HASTINGS       MOCLDY    72  54  53 E3        30.14S
HEBRON         CLEAR     66  55  69 CALM      30.12S
HOLDREGE       MOCLDY    71  59  65 CALM      30.15S
KEARNEY *      MOCLDY    70  59  68 E6        30.15S
YORK           PTCLDY    72  57  60 SE3       30.12F
$$

NEZ011>018-030>034-042>045-310300-
NORTHEAST NEBRASKA

CITY           SKY/WX    TMP DP  RH WIND       PRES   REMARKS
NORFOLK        PTCLDY    71  55  56 SE5       30.10F
ALBION         MOCLDY    68  60  74 CALM      30.12S
BLAIR          PTCLDY    71  55  56 E3        30.10S
COLUMBUS *     MOCLDY    72  55  56 S3        30.11S
FREMONT        PTCLDY    75  53  46 CALM      30.11S
TEKAMAH        PTCLDY    69  59  70 E5        30.09F
WAYNE          CLEAR     66  61  83 E3        30.11S
$$

NEZ050>053-065>068-078-088>093-310300-
SOUTHEAST NEBRASKA

CITY           SKY/WX    TMP DP  RH WIND       PRES   REMARKS
LINCOLN        PTCLDY    73  52  47 NE6       30.11S
OMAHA EPPLEY   MOCLDY    73  55  53 CALM      30.10R
BEATRICE       PTCLDY    70  56  61 CALM      30.11R
FALLS CITY     CLEAR     72  56  57 CALM      30.09R
NEBRASKA CITY  PTCLDY    71  54  55 CALM      30.10S
PLATTSMOUTH    PTCLDY    71  55  58 CALM      30.11R
$$

NEZ044-045-051>053-067-310300-
OMAHA AREA

CITY           SKY/WX    TMP DP  RH WIND       PRES   REMARKS
OMAHA EPPLEY   MOCLDY    73  55  53 CALM      30.10R
BLAIR          PTCLDY    71  55  56 E3        30.10S
FREMONT        PTCLDY    75  53  46 CALM      30.11S
MILLARD        PTCLDY    71  57  60 CALM      30.10R
OFFUTT AFB     PTCLDY    66  62  89 CALM      30.09S
PLATTSMOUTH    PTCLDY    71  55  58 CALM      30.11R
WAHOO          FAIR      70  60  70 CALM      30.10S
$$



USA.gov is the U.S. government's official web portal to all federal, state and local government web resources and services.